| time (UTC) | temp F | wind direction | speed MPH | gust MPH | rain 1hr in | rain 24hr in | rain mn in | humidity % | barometer mb |
| 20260507043057 | 44 | 284 | 1.0 | 2.0 | 0.00 | 0.00 | 0.00 | 64 | 1012.0 |
| 20260507042517 | 45 | 284 | 1.0 | 2.0 | 0.00 | 0.00 | 0.00 | 64 | 1012.0 |
| 20260507042017 | 45 | 0.0 | 0.0 | 0.00 | 0.00 | 0.00 | 63 | 1012.0 | |
| 20260507041517 | 45 | 0.0 | 0.0 | 0.00 | 0.00 | 0.00 | 61 | 1012.0 | |
| 20260507041017 | 45 | 0.0 | 0.0 | 0.00 | 0.00 | 0.00 | 61 | 1012.0 | |
| 20260507040517 | 45 | 0.0 | 0.0 | 0.00 | 0.00 | 0.00 | 60 | 1012.1 | |
| 20260507040018 | 45 | 0.0 | 0.0 | 0.00 | 0.00 | 0.00 | 58 | 1012.0 | |
| 20260507035515 | 45 | 0.0 | 0.0 | 0.00 | 0.00 | 0.00 | 57 | 1012.1 | |
| 20260507035036 | 45 | 0.0 | 0.0 | 0.00 | 0.00 | 0.00 | 57 | 1012.1 | |
| 20260507034535 | 45 | 0.0 | 0.0 | 0.00 | 0.00 | 0.00 | 56 | 1012.1 | |
| 20260507034015 | 46 | 0.0 | 0.0 | 0.00 | 0.00 | 0.00 | 56 | 1012.1 | |
| 20260507033515 | 46 | 0.0 | 2.0 | 0.00 | 0.00 | 0.00 | 56 | 1012.1 | |
| 20260507033015 | 46 | 277 | 0.0 | 2.0 | 0.00 | 0.00 | 0.00 | 57 | 1012.1 |
| 20260507032515 | 46 | 277 | 0.0 | 4.0 | 0.00 | 0.00 | 0.00 | 57 | 1012.2 |
| 20260507032035 | 46 | 276 | 1.0 | 4.0 | 0.00 | 0.00 | 0.00 | 53 | 1012.1 |
| 20260507031515 | 46 | 287 | 1.0 | 3.0 | 0.00 | 0.00 | 0.00 | 53 | 1012.1 |
| 20260507031015 | 46 | 280 | 1.0 | 2.0 | 0.00 | 0.00 | 0.00 | 54 | 1012.1 |
| 20260507030515 | 47 | 325 | 1.0 | 3.0 | 0.00 | 0.00 | 0.00 | 52 | 1012.1 |
| 20260507030015 | 47 | 335 | 2.0 | 3.0 | 0.00 | 0.00 | 0.00 | 54 | 1012.2 |
| 20260507025515 | 47 | 287 | 1.0 | 3.0 | 0.00 | 0.00 | 0.00 | 51 | 1012.2 |
| 20260507025035 | 47 | 284 | 1.0 | 2.0 | 0.00 | 0.00 | 0.00 | 52 | 1012.3 |
| 20260507024515 | 47 | 304 | 1.0 | 4.0 | 0.00 | 0.00 | 0.00 | 51 | 1012.2 |
| 20260507024015 | 47 | 311 | 2.0 | 4.0 | 0.00 | 0.00 | 0.00 | 49 | 1012.2 |
| 20260507023515 | 47 | 319 | 2.0 | 4.0 | 0.00 | 0.00 | 0.00 | 49 | 1012.2 |
| 20260507023015 | 47 | 307 | 2.0 | 4.0 | 0.00 | 0.00 | 0.00 | 49 | 1012.2 |
| 20260507022515 | 47 | 317 | 1.0 | 3.0 | 0.00 | 0.00 | 0.00 | 48 | 1012.1 |
| 20260507022016 | 48 | 316 | 1.0 | 3.0 | 0.00 | 0.00 | 0.00 | 48 | 1012.0 |
| 20260507021515 | 48 | 324 | 2.0 | 4.0 | 0.00 | 0.00 | 0.00 | 48 | 1012.0 |
| 20260507021016 | 48 | 329 | 2.0 | 4.0 | 0.00 | 0.00 | 0.00 | 48 | 1012.0 |
| 20260507020515 | 48 | 320 | 2.0 | 4.0 | 0.00 | 0.00 | 0.00 | 48 | 1012.0 |
| 20260507020016 | 48 | 309 | 1.0 | 4.0 | 0.00 | 0.00 | 0.00 | 47 | 1011.8 |
| 20260507015515 | 48 | 307 | 2.0 | 4.0 | 0.00 | 0.00 | 0.00 | 46 | 1011.8 |
| 20260507015016 | 48 | 311 | 2.0 | 4.0 | 0.00 | 0.00 | 0.00 | 46 | 1011.7 |
| 20260507014515 | 48 | 324 | 2.0 | 4.0 | 0.00 | 0.00 | 0.00 | 46 | 1011.6 |
| 20260507014015 | 48 | 323 | 2.0 | 4.0 | 0.00 | 0.00 | 0.00 | 46 | 1011.7 |
| 20260507013515 | 49 | 319 | 2.0 | 3.0 | 0.00 | 0.00 | 0.00 | 46 | 1011.7 |
| 20260507013056 | 49 | 332 | 2.0 | 4.0 | 0.00 | 0.00 | 0.00 | 46 | 1011.6 |
| 20260507012516 | 49 | 309 | 2.0 | 4.0 | 0.00 | 0.00 | 0.00 | 46 | 1011.6 |
| 20260507012036 | 49 | 290 | 1.0 | 3.0 | 0.00 | 0.00 | 0.00 | 45 | 1011.6 |
| 20260507011515 | 49 | 295 | 2.0 | 3.0 | 0.00 | 0.00 | 0.00 | 44 | 1011.6 |
| 20260507011017 | 49 | 298 | 1.0 | 4.0 | 0.00 | 0.00 | 0.00 | 44 | 1011.6 |
| 20260507010516 | 49 | 296 | 2.0 | 4.0 | 0.00 | 0.00 | 0.00 | 44 | 1011.5 |
| 20260507010017 | 49 | 280 | 2.0 | 4.0 | 0.00 | 0.00 | 0.00 | 44 | 1011.5 |
| 20260507005517 | 49 | 273 | 2.0 | 4.0 | 0.00 | 0.00 | 0.00 | 44 | 1011.6 |
| 20260507005017 | 49 | 273 | 2.0 | 7.0 | 0.00 | 0.00 | 0.00 | 43 | 1011.4 |
| 20260507004518 | 50 | 285 | 3.0 | 7.0 | 0.00 | 0.00 | 0.00 | 42 | 1011.5 |
| 20260507004018 | 50 | 289 | 3.0 | 6.0 | 0.00 | 0.00 | 0.00 | 42 | 1011.4 |
| 20260507003537 | 50 | 290 | 2.0 | 4.0 | 0.00 | 0.00 | 0.00 | 42 | 1011.4 |
| 20260507003017 | 50 | 279 | 2.0 | 6.0 | 0.00 | 0.00 | 0.00 | 42 | 1011.4 |
| 20260507002517 | 50 | 273 | 3.0 | 8.0 | 0.00 | 0.00 | 0.00 | 42 | 1011.2 |
| 20260507002037 | 50 | 275 | 4.0 | 10.0 | 0.00 | 0.00 | 0.00 | 42 | 1011.2 |
| 20260507001517 | 50 | 273 | 4.0 | 10.0 | 0.00 | 0.00 | 0.00 | 42 | 1011.1 |
| 20260507001017 | 50 | 275 | 3.0 | 8.0 | 0.00 | 0.00 | 0.00 | 42 | 1011.1 |
| 20260507000518 | 50 | 284 | 4.0 | 10.0 | 0.00 | 0.00 | 0.00 | 41 | 1011.1 |
| 20260507000018 | 50 | 293 | 6.0 | 10.0 | 0.00 | 0.00 | 0.00 | 41 | 1011.0 |
| 20260506235517 | 50 | 303 | 4.0 | 8.0 | 0.00 | 0.00 | 0.00 | 41 | 1011.0 |
| 20260506235017 | 50 | 308 | 3.0 | 6.0 | 0.00 | 0.00 | 0.00 | 41 | 1011.1 |
| 20260506234518 | 51 | 288 | 3.0 | 10.0 | 0.00 | 0.00 | 0.00 | 40 | 1011.0 |
| 20260506234018 | 51 | 275 | 6.0 | 10.0 | 0.00 | 0.00 | 0.00 | 39 | 1011.0 |
| 20260506233537 | 51 | 287 | 4.0 | 10.0 | 0.00 | 0.00 | 0.00 | 40 | 1011.0 |
| 20260506233016 | 51 | 288 | 5.0 | 12.0 | 0.00 | 0.00 | 0.00 | 40 | 1010.9 |
| 20260506232517 | 51 | 318 | 6.0 | 12.0 | 0.00 | 0.00 | 0.00 | 40 | 1011.0 |
| 20260506232016 | 51 | 300 | 6.0 | 12.0 | 0.00 | 0.00 | 0.00 | 39 | 1011.0 |
| 20260506231518 | 51 | 288 | 7.0 | 11.0 | 0.00 | 0.00 | 0.00 | 39 | 1011.0 |
| 20260506231017 | 51 | 289 | 6.0 | 14.0 | 0.00 | 0.00 | 0.00 | 39 | 1011.0 |
| 20260506230517 | 51 | 307 | 8.0 | 14.0 | 0.00 | 0.00 | 0.00 | 39 | 1011.0 |
| 20260506230017 | 52 | 300 | 6.0 | 12.0 | 0.00 | 0.00 | 0.00 | 38 | 1011.0 |
| 20260506225517 | 52 | 297 | 8.0 | 12.0 | 0.00 | 0.00 | 0.00 | 37 | 1011.0 |
| 20260506225037 | 53 | 264 | 6.0 | 12.0 | 0.00 | 0.00 | 0.00 | 37 | 1011.1 |
| 20260506224517 | 53 | 251 | 7.0 | 17.0 | 0.00 | 0.00 | 0.00 | 38 | 1011.1 |
| 20260506224018 | 53 | 275 | 9.0 | 17.0 | 0.00 | 0.00 | 0.00 | 37 | 1011.2 |
| 20260506223517 | 53 | 257 | 7.0 | 15.0 | 0.00 | 0.00 | 0.00 | 38 | 1011.1 |
| 20260506223017 | 52 | 260 | 9.0 | 17.0 | 0.00 | 0.00 | 0.00 | 39 | 1011.1 |
| 20260506222518 | 53 | 249 | 10.0 | 17.0 | 0.00 | 0.00 | 0.00 | 38 | 1011.1 |
| 20260506222016 | 53 | 287 | 11.0 | 20.0 | 0.00 | 0.00 | 0.00 | 37 | 1011.2 |
| 20260506221517 | 53 | 319 | 11.0 | 20.0 | 0.00 | 0.00 | 0.00 | 37 | 1011.1 |
| 20260506221016 | 52 | 305 | 8.0 | 15.0 | 0.00 | 0.00 | 0.00 | 38 | 1011.1 |
| 20260506220516 | 52 | 305 | 11.0 | 15.0 | 0.00 | 0.00 | 0.00 | 37 | 1011.1 |
| 20260506220016 | 52 | 293 | 8.0 | 14.0 | 0.00 | 0.00 | 0.00 | 37 | 1011.1 |
| 20260506215518 | 52 | 284 | 8.0 | 16.0 | 0.00 | 0.00 | 0.00 | 38 | 1011.1 |
| 20260506215017 | 52 | 304 | 10.0 | 16.0 | 0.00 | 0.00 | 0.00 | 37 | 1011.0 |
| 20260506214537 | 52 | 305 | 8.0 | 13.0 | 0.00 | 0.00 | 0.00 | 38 | 1010.9 |
| 20260506214016 | 52 | 301 | 8.0 | 16.0 | 0.00 | 0.00 | 0.00 | 37 | 1011.0 |
| 20260506213516 | 52 | 310 | 9.0 | 16.0 | 0.00 | 0.00 | 0.00 | 37 | 1011.1 |
| 20260506213017 | 52 | 308 | 8.0 | 14.0 | 0.00 | 0.00 | 0.00 | 38 | 1011.1 |
| 20260506212537 | 53 | 309 | 10.0 | 16.0 | 0.00 | 0.00 | 0.00 | 37 | 1011.0 |
| 20260506212016 | 53 | 317 | 10.0 | 17.0 | 0.00 | 0.00 | 0.00 | 36 | 1011.1 |
| 20260506211516 | 53 | 295 | 10.0 | 17.0 | 0.00 | 0.00 | 0.00 | 35 | 1011.0 |
| 20260506211017 | 53 | 290 | 9.0 | 16.0 | 0.00 | 0.00 | 0.00 | 37 | 1011.1 |
| 20260506210517 | 53 | 263 | 10.0 | 17.0 | 0.00 | 0.00 | 0.00 | 41 | 1011.1 |
| 20260506210016 | 52 | 293 | 10.0 | 17.0 | 0.00 | 0.00 | 0.00 | 36 | 1011.2 |
| 20260506205516 | 52 | 298 | 9.0 | 19.0 | 0.00 | 0.00 | 0.00 | 36 | 1011.1 |
| 20260506205016 | 52 | 288 | 11.0 | 19.0 | 0.00 | 0.00 | 0.00 | 37 | 1011.3 |
| 20260506204517 | 52 | 293 | 9.0 | 16.0 | 0.00 | 0.00 | 0.00 | 37 | 1011.3 |
| 20260506204036 | 52 | 289 | 9.0 | 19.0 | 0.00 | 0.00 | 0.00 | 37 | 1011.3 |
| 20260506203516 | 52 | 305 | 12.0 | 19.0 | 0.00 | 0.00 | 0.00 | 36 | 1011.3 |
| 20260506203016 | 52 | 276 | 9.0 | 19.0 | 0.00 | 0.00 | 0.00 | 39 | 1011.3 |
| 20260506202516 | 52 | 285 | 8.0 | 19.0 | 0.00 | 0.00 | 0.00 | 36 | 1011.3 |
| 20260506202016 | 52 | 267 | 12.0 | 31.0 | 0.00 | 0.00 | 0.00 | 36 | 1011.5 |
| 20260506201517 | 53 | 261 | 11.0 | 31.0 | 0.00 | 0.00 | 0.00 | 36 | 1011.6 |
| 20260506201016 | 53 | 268 | 6.0 | 15.0 | 0.00 | 0.00 | 0.00 | 40 | 1011.5 |
| 20260506200556 | 53 | 258 | 10.0 | 15.0 | 0.00 | 0.00 | 0.00 | 38 | 1011.7 |
| 20260506200016 | 53 | 260 | 12.0 | 15.0 | 0.00 | 0.00 | 0.00 | 37 | 1011.6 |
| 20260506195516 | 52 | 294 | 11.0 | 16.0 | 0.00 | 0.00 | 0.00 | 39 | 1011.7 |
| 20260506195016 | 52 | 314 | 9.0 | 19.0 | 0.00 | 0.00 | 0.00 | 35 | 1011.7 |
| 20260506194536 | 52 | 306 | 10.0 | 19.0 | 0.00 | 0.00 | 0.00 | 37 | 1011.8 |
| 20260506194016 | 52 | 308 | 9.0 | 18.0 | 0.00 | 0.00 | 0.00 | 36 | 1011.7 |
| 20260506193517 | 51 | 300 | 11.0 | 18.0 | 0.00 | 0.00 | 0.00 | 36 | 1011.8 |
| 20260506193016 | 51 | 296 | 11.0 | 17.0 | 0.00 | 0.00 | 0.00 | 36 | 1011.7 |
| 20260506192516 | 51 | 286 | 10.0 | 16.0 | 0.00 | 0.00 | 0.00 | 36 | 1011.7 |
| 20260506192037 | 51 | 286 | 7.0 | 16.0 | 0.00 | 0.00 | 0.00 | 35 | 1011.7 |
| 20260506191516 | 52 | 305 | 11.0 | 16.0 | 0.00 | 0.00 | 0.00 | 35 | 1011.8 |
| 20260506191017 | 52 | 274 | 10.0 | 16.0 | 0.00 | 0.00 | 0.00 | 35 | 1011.6 |
| 20260506190516 | 52 | 282 | 9.0 | 18.0 | 0.00 | 0.00 | 0.00 | 37 | 1011.6 |
| 20260506190016 | 51 | 290 | 10.0 | 18.0 | 0.00 | 0.00 | 0.00 | 36 | 1011.7 |
| 20260506185516 | 51 | 283 | 10.0 | 18.0 | 0.00 | 0.00 | 0.00 | 38 | 1011.8 |
| 20260506185016 | 51 | 300 | 11.0 | 18.0 | 0.00 | 0.00 | 0.00 | 36 | 1011.9 |
| 20260506184517 | 52 | 279 | 11.0 | 17.0 | 0.00 | 0.00 | 0.00 | 37 | 1011.9 |
| 20260506184016 | 51 | 262 | 10.0 | 17.0 | 0.00 | 0.00 | 0.00 | 36 | 1011.8 |
| 20260506183516 | 51 | 281 | 10.0 | 16.0 | 0.00 | 0.00 | 0.00 | 36 | 1011.9 |
| 20260506183016 | 52 | 287 | 9.0 | 17.0 | 0.00 | 0.00 | 0.00 | 37 | 1011.7 |
| 20260506182516 | 52 | 256 | 10.0 | 20.0 | 0.00 | 0.00 | 0.00 | 39 | 1011.7 |
| 20260506182016 | 51 | 295 | 12.0 | 20.0 | 0.00 | 0.00 | 0.00 | 40 | 1011.8 |
| 20260506181516 | 51 | 310 | 9.0 | 18.0 | 0.00 | 0.00 | 0.00 | 38 | 1011.6 |
| 20260506181016 | 51 | 313 | 12.0 | 18.0 | 0.00 | 0.00 | 0.00 | 36 | 1011.9 |
| 20260506180517 | 51 | 279 | 11.0 | 17.0 | 0.00 | 0.00 | 0.00 | 39 | 1011.7 |
| 20260506180036 | 51 | 279 | 9.0 | 17.0 | 0.00 | 0.00 | 0.00 | 39 | 1011.7 |
| 20260506175516 | 51 | 307 | 8.0 | 15.0 | 0.00 | 0.00 | 0.00 | 37 | 1011.8 |
| 20260506175016 | 51 | 311 | 6.0 | 15.0 | 0.00 | 0.00 | 0.00 | 38 | 1011.6 |
| 20260506174517 | 51 | 312 | 9.0 | 15.0 | 0.00 | 0.00 | 0.00 | 38 | 1011.7 |
| 20260506174016 | 51 | 269 | 6.0 | 16.0 | 0.00 | 0.00 | 0.00 | 37 | 1011.8 |
| 20260506173516 | 51 | 291 | 9.0 | 16.0 | 0.00 | 0.00 | 0.00 | 37 | 1011.7 |
| 20260506173017 | 51 | 275 | 8.0 | 19.0 | 0.00 | 0.00 | 0.00 | 38 | 1011.8 |
| 20260506172536 | 51 | 272 | 10.0 | 19.0 | 0.00 | 0.00 | 0.00 | 38 | 1011.9 |
| 20260506172016 | 51 | 284 | 10.0 | 16.0 | 0.00 | 0.00 | 0.00 | 37 | 1011.8 |
| 20260506171516 | 52 | 287 | 10.0 | 16.0 | 0.00 | 0.00 | 0.00 | 37 | 1011.8 |
| 20260506171017 | 51 | 321 | 9.0 | 15.0 | 0.00 | 0.00 | 0.00 | 39 | 1011.9 |
| 20260506170516 | 51 | 306 | 8.0 | 15.0 | 0.00 | 0.00 | 0.00 | 38 | 1011.9 |
| 20260506170037 | 50 | 295 | 6.0 | 11.0 | 0.00 | 0.00 | 0.00 | 38 | 1011.9 |
| 20260506165516 | 50 | 272 | 8.0 | 17.0 | 0.00 | 0.00 | 0.00 | 39 | 1012.0 |
| 20260506165016 | 50 | 301 | 7.0 | 17.0 | 0.00 | 0.00 | 0.00 | 38 | 1011.9 |
| 20260506164516 | 50 | 314 | 6.0 | 13.0 | 0.00 | 0.00 | 0.00 | 43 | 1011.9 |
| 20260506164016 | 50 | 321 | 9.0 | 14.0 | 0.00 | 0.00 | 0.00 | 40 | 1011.9 |
| 20260506163516 | 50 | 344 | 7.0 | 15.0 | 0.00 | 0.00 | 0.00 | 40 | 1011.9 |
| 20260506163016 | 50 | 344 | 10.0 | 17.0 | 0.00 | 0.00 | 0.00 | 42 | 1011.9 |
| 20260506162516 | 50 | 323 | 11.0 | 18.0 | 0.00 | 0.00 | 0.00 | 38 | 1011.8 |
| 20260506162016 | 51 | 331 | 6.0 | 18.0 | 0.00 | 0.00 | 0.00 | 39 | 1011.8 |
| 20260506161516 | 51 | 9 | 7.0 | 16.0 | 0.00 | 0.00 | 0.00 | 42 | 1011.8 |
| 20260506161037 | 50 | 310 | 9.0 | 16.0 | 0.00 | 0.00 | 0.00 | 40 | 1011.9 |
| 20260506160516 | 50 | 280 | 9.0 | 15.0 | 0.00 | 0.00 | 0.00 | 39 | 1011.9 |
| 20260506160016 | 50 | 291 | 9.0 | 15.0 | 0.00 | 0.00 | 0.00 | 39 | 1011.9 |
| 20260506155536 | 50 | 318 | 5.0 | 13.0 | 0.00 | 0.00 | 0.00 | 39 | 1012.0 |
| 20260506155016 | 50 | 324 | 7.0 | 13.0 | 0.00 | 0.00 | 0.00 | 39 | 1012.0 |
| 20260506154536 | 50 | 292 | 6.0 | 12.0 | 0.00 | 0.00 | 0.00 | 40 | 1011.9 |
| 20260506154016 | 50 | 314 | 8.0 | 16.0 | 0.00 | 0.00 | 0.00 | 43 | 1011.9 |
| 20260506153516 | 50 | 308 | 11.0 | 16.0 | 0.00 | 0.00 | 0.00 | 38 | 1012.0 |
| 20260506153016 | 50 | 278 | 7.0 | 12.0 | 0.00 | 0.00 | 0.00 | 37 | 1011.8 |
| 20260506152536 | 51 | 1 | 6.0 | 11.0 | 0.00 | 0.00 | 0.00 | 42 | 1011.9 |
| 20260506152037 | 50 | 323 | 4.0 | 9.0 | 0.00 | 0.00 | 0.00 | 41 | 1011.9 |
| 20260506151516 | 50 | 319 | 3.0 | 8.0 | 0.00 | 0.00 | 0.00 | 44 | 1011.9 |
| 20260506151016 | 50 | 38 | 3.0 | 8.0 | 0.00 | 0.00 | 0.00 | 42 | 1012.0 |
| 20260506150536 | 49 | 16 | 3.0 | 9.0 | 0.00 | 0.00 | 0.00 | 43 | 1012.0 |
| 20260506150016 | 48 | 316 | 4.0 | 9.0 | 0.00 | 0.00 | 0.00 | 41 | 1011.9 |
| 20260506145517 | 48 | 346 | 5.0 | 13.0 | 0.00 | 0.00 | 0.00 | 42 | 1012.0 |
| 20260506145016 | 48 | 306 | 7.0 | 13.0 | 0.00 | 0.00 | 0.00 | 40 | 1011.9 |
| 20260506144516 | 48 | 282 | 6.0 | 10.0 | 0.00 | 0.00 | 0.00 | 41 | 1011.8 |
| 20260506144016 | 48 | 52 | 1.0 | 6.0 | 0.00 | 0.00 | 0.00 | 44 | 1011.7 |
| 20260506143516 | 48 | 325 | 2.0 | 8.0 | 0.00 | 0.00 | 0.00 | 44 | 1011.7 |
| 20260506143036 | 48 | 308 | 3.0 | 10.0 | 0.00 | 0.00 | 0.00 | 43 | 1011.7 |
| 20260506142515 | 49 | 332 | 4.0 | 10.0 | 0.00 | 0.00 | 0.00 | 45 | 1011.6 |
| 20260506142016 | 49 | 301 | 1.0 | 8.0 | 0.00 | 0.00 | 0.00 | 45 | 1011.5 |
| 20260506141537 | 49 | 68 | 1.0 | 5.0 | 0.00 | 0.00 | 0.00 | 47 | 1011.5 |
| 20260506141016 | 48 | 60 | 1.0 | 3.0 | 0.00 | 0.00 | 0.00 | 50 | 1011.5 |
| 20260506140516 | 48 | 73 | 1.0 | 4.0 | 0.00 | 0.00 | 0.00 | 51 | 1011.5 |
| 20260506140017 | 47 | 102 | 1.0 | 4.0 | 0.00 | 0.00 | 0.00 | 51 | 1011.4 |
| 20260506135516 | 47 | 93 | 2.0 | 6.0 | 0.00 | 0.00 | 0.00 | 52 | 1011.4 |
| 20260506135037 | 46 | 53 | 3.0 | 7.0 | 0.00 | 0.00 | 0.00 | 52 | 1011.5 |
| 20260506134536 | 46 | 13 | 2.0 | 8.0 | 0.00 | 0.00 | 0.00 | 55 | 1011.4 |
| 20260506134037 | 46 | 27 | 3.0 | 8.0 | 0.00 | 0.00 | 0.00 | 56 | 1011.3 |
| 20260506133536 | 45 | 16 | 3.0 | 7.0 | 0.00 | 0.00 | 0.00 | 58 | 1011.3 |
| 20260506133016 | 45 | 33 | 4.0 | 9.0 | 0.00 | 0.00 | 0.00 | 57 | 1011.2 |
| 20260506132516 | 45 | 39 | 5.0 | 9.0 | 0.00 | 0.00 | 0.00 | 58 | 1011.0 |
| 20260506132017 | 45 | 50 | 3.0 | 8.0 | 0.00 | 0.00 | 0.00 | 59 | 1011.0 |
| 20260506131515 | 45 | 32 | 4.0 | 9.0 | 0.00 | 0.00 | 0.00 | 59 | 1011.1 |
| 20260506131015 | 45 | 43 | 5.0 | 9.0 | 0.00 | 0.00 | 0.00 | 60 | 1011.1 |
| 20260506130516 | 45 | 43 | 4.0 | 9.0 | 0.00 | 0.00 | 0.00 | 60 | 1011.1 |
| 20260506130016 | 45 | 25 | 4.0 | 9.0 | 0.00 | 0.00 | 0.00 | 63 | 1011.1 |
| 20260506125515 | 45 | 31 | 4.0 | 8.0 | 0.00 | 0.00 | 0.00 | 63 | 1011.0 |
| 20260506125037 | 44 | 60 | 3.0 | 7.0 | 0.00 | 0.00 | 0.00 | 65 | 1011.1 |
| 20260506124015 | 43 | 46 | 3.0 | 8.0 | 0.00 | 0.00 | 0.00 | 68 | 1011.1 |
| 20260506123537 | 43 | 4 | 3.0 | 8.0 | 0.00 | 0.00 | 0.00 | 68 | 1011.1 |
| 20260506123017 | 42 | 15 | 3.0 | 7.0 | 0.00 | 0.00 | 0.00 | 71 | 1011.1 |
| 20260506122516 | 41 | 2 | 3.0 | 7.0 | 0.00 | 0.00 | 0.00 | 74 | 1011.1 |
| 20260506122015 | 40 | 355 | 0.0 | 5.0 | 0.00 | 0.00 | 0.00 | 79 | 1010.9 |
| 20260506121515 | 40 | 297 | 1.0 | 3.0 | 0.00 | 0.00 | 0.00 | 79 | 1010.9 |
| 20260506121037 | 39 | 270 | 1.0 | 4.0 | 0.00 | 0.00 | 0.00 | 82 | 1010.8 |
| 20260506120516 | 39 | 266 | 2.0 | 4.0 | 0.00 | 0.00 | 0.00 | 83 | 1010.7 |
| 20260506120015 | 38 | 255 | 3.0 | 4.0 | 0.00 | 0.00 | 0.00 | 85 | 1010.7 |
| 20260506115515 | 38 | 256 | 2.0 | 4.0 | 0.00 | 0.00 | 0.00 | 87 | 1010.5 |
| 20260506115036 | 37 | 252 | 2.0 | 4.0 | 0.00 | 0.00 | 0.00 | 87 | 1010.4 |
| 20260506114557 | 36 | 253 | 2.0 | 3.0 | 0.00 | 0.00 | 0.00 | 87 | 1010.3 |
| 20260506114016 | 36 | 222 | 2.0 | 3.0 | 0.00 | 0.00 | 0.00 | 87 | 1010.2 |
| 20260506113515 | 35 | 142 | 0.0 | 2.0 | 0.00 | 0.00 | 0.00 | 85 | 1010.1 |
| 20260506113015 | 35 | 142 | 0.0 | 1.0 | 0.00 | 0.00 | 0.00 | 85 | 1009.9 |
| 20260506112515 | 35 | 0.0 | 0.0 | 0.00 | 0.00 | 0.00 | 84 | 1009.8 | |
| 20260506112015 | 35 | 0.0 | 1.0 | 0.00 | 0.00 | 0.00 | 84 | 1009.8 | |
| 20260506111515 | 35 | 141 | 0.0 | 1.0 | 0.00 | 0.00 | 0.00 | 83 | 1009.6 |
| 20260506111015 | 36 | 142 | 0.0 | 2.0 | 0.00 | 0.00 | 0.00 | 83 | 1009.5 |
| 20260506110515 | 36 | 142 | 1.0 | 2.0 | 0.00 | 0.00 | 0.00 | 83 | 1009.5 |
| 20260506110036 | 36 | 142 | 1.0 | 3.0 | 0.00 | 0.00 | 0.00 | 82 | 1009.5 |
| 20260506105516 | 36 | 141 | 0.0 | 3.0 | 0.00 | 0.00 | 0.00 | 82 | 1009.4 |
| 20260506105015 | 36 | 275 | 0.0 | 3.0 | 0.00 | 0.00 | 0.00 | 82 | 1009.2 |
| 20260506104515 | 36 | 275 | 1.0 | 3.0 | 0.00 | 0.00 | 0.00 | 82 | 1009.2 |
| 20260506104015 | 36 | 268 | 2.0 | 3.0 | 0.00 | 0.00 | 0.00 | 82 | 1009.3 |
| 20260506103515 | 36 | 279 | 2.0 | 3.0 | 0.00 | 0.00 | 0.00 | 82 | 1009.3 |
| 20260506103015 | 37 | 290 | 2.0 | 3.0 | 0.00 | 0.00 | 0.00 | 82 | 1009.3 |
| 20260506102515 | 37 | 298 | 1.0 | 2.0 | 0.00 | 0.00 | 0.00 | 82 | 1009.4 |
| 20260506102035 | 37 | 300 | 1.0 | 3.0 | 0.00 | 0.00 | 0.00 | 82 | 1009.3 |
| 20260506101536 | 37 | 296 | 1.0 | 3.0 | 0.00 | 0.00 | 0.00 | 82 | 1009.6 |
| 20260506101017 | 37 | 287 | 2.0 | 3.0 | 0.00 | 0.00 | 0.00 | 82 | 1009.5 |
| 20260506100535 | 37 | 297 | 1.0 | 3.0 | 0.00 | 0.00 | 0.00 | 83 | 1009.4 |
| 20260506100015 | 37 | 308 | 1.0 | 3.0 | 0.00 | 0.00 | 0.00 | 83 | 1009.4 |
| 20260506095515 | 37 | 303 | 1.0 | 3.0 | 0.00 | 0.00 | 0.00 | 83 | 1009.3 |
| 20260506095036 | 37 | 291 | 1.0 | 4.0 | 0.00 | 0.00 | 0.00 | 83 | 1009.3 |
| 20260506094515 | 37 | 275 | 2.0 | 4.0 | 0.00 | 0.00 | 0.00 | 83 | 1009.4 |
| 20260506094038 | 37 | 274 | 2.0 | 4.0 | 0.00 | 0.00 | 0.00 | 83 | 1009.4 |
| 20260506093516 | 37 | 291 | 1.0 | 3.0 | 0.00 | 0.00 | 0.00 | 82 | 1009.3 |
| 20260506093015 | 37 | 280 | 1.0 | 3.0 | 0.00 | 0.00 | 0.00 | 83 | 1009.2 |
| 20260506092535 | 37 | 281 | 1.0 | 3.0 | 0.00 | 0.00 | 0.00 | 82 | 1009.2 |
| 20260506092015 | 37 | 298 | 0.0 | 2.0 | 0.00 | 0.00 | 0.00 | 81 | 1009.1 |
| 20260506091535 | 37 | 0.0 | 0.0 | 0.00 | 0.00 | 0.00 | 81 | 1008.9 | |
| 20260506091015 | 37 | 0.0 | 0.0 | 0.00 | 0.00 | 0.00 | 81 | 1008.9 | |
| 20260506090515 | 37 | 0.0 | 0.0 | 0.00 | 0.00 | 0.00 | 81 | 1008.8 | |
| 20260506090015 | 37 | 0.0 | 0.0 | 0.00 | 0.00 | 0.00 | 81 | 1008.8 | |
| 20260506085515 | 37 | 0.0 | 0.0 | 0.00 | 0.00 | 0.00 | 81 | 1008.8 | |
| 20260506085015 | 37 | 0.0 | 0.0 | 0.00 | 0.00 | 0.00 | 80 | 1008.7 | |
| 20260506084515 | 37 | 0.0 | 0.0 | 0.00 | 0.00 | 0.00 | 79 | 1008.6 | |
| 20260506084015 | 37 | 0.0 | 0.0 | 0.00 | 0.00 | 0.00 | 77 | 1008.6 | |
| 20260506083515 | 38 | 0.0 | 0.0 | 0.00 | 0.00 | 0.00 | 77 | 1008.6 | |
| 20260506083138 | 38 | 0.0 | 0.0 | 0.00 | 0.00 | 0.00 | 78 | 1008.6 | |
| 20260506082515 | 38 | 0.0 | 0.0 | 0.00 | 0.00 | 0.00 | 77 | 1008.5 | |
| 20260506082015 | 38 | 0.0 | 0.0 | 0.00 | 0.00 | 0.00 | 77 | 1008.5 | |
| 20260506081515 | 38 | 0.0 | 0.0 | 0.00 | 0.00 | 0.00 | 76 | 1008.5 | |
| 20260506081016 | 39 | 0.0 | 0.0 | 0.00 | 0.00 | 0.00 | 76 | 1008.5 | |
| 20260506080515 | 39 | 0.0 | 0.0 | 0.00 | 0.00 | 0.00 | 75 | 1008.5 | |
| 20260506073517 | 40 | 252 | 0.0 | 2.0 | 0.00 | 0.00 | 0.00 | 71 | 1008.6 |
| 20260506073017 | 40 | 0.0 | 2.0 | 0.00 | 0.00 | 0.00 | 71 | 1008.6 | |
| 20260506072517 | 41 | 252 | 0.0 | 3.0 | 0.00 | 0.00 | 0.00 | 70 | 1008.5 |
| 20260506072017 | 41 | 299 | 1.0 | 3.0 | 0.00 | 0.00 | 0.00 | 69 | 1008.7 |
| 20260506071517 | 41 | 329 | 1.0 | 2.0 | 0.00 | 0.00 | 0.00 | 68 | 1008.6 |
| 20260506071038 | 42 | 331 | 0.0 | 3.0 | 0.00 | 0.00 | 0.00 | 68 | 1008.6 |
| 20260506070517 | 42 | 335 | 1.0 | 3.0 | 0.00 | 0.00 | 0.00 | 68 | 1008.7 |
| 20260506062517 | 43 | 327 | 2.0 | 7.0 | 0.00 | 0.00 | 0.00 | 65 | 1008.7 |
| 20260506062017 | 43 | 329 | 3.0 | 8.0 | 0.00 | 0.00 | 0.00 | 64 | 1008.7 |
| 20260506061517 | 43 | 330 | 3.0 | 8.0 | 0.00 | 0.00 | 0.00 | 63 | 1008.8 |
| 20260506061017 | 43 | 327 | 2.0 | 7.0 | 0.00 | 0.00 | 0.00 | 63 | 1008.8 |
| 20260506060517 | 44 | 312 | 3.0 | 7.0 | 0.00 | 0.00 | 0.00 | 62 | 1008.9 |
| 20260506051016 | 44 | 300 | 4.0 | 9.0 | 0.00 | 0.00 | 0.00 | 61 | 1008.8 |
| 20260506050537 | 44 | 286 | 5.0 | 8.0 | 0.00 | 0.00 | 0.00 | 61 | 1009.1 |
| 20260506045018 | 44 | 304 | 5.0 | 8.0 | 0.00 | 0.00 | 0.00 | 63 | 1008.6 |
| 20260506044516 | 44 | 303 | 5.0 | 8.0 | 0.00 | 0.00 | 0.00 | 63 | 1008.6 |
| 20260506044016 | 44 | 280 | 3.0 | 6.0 | 0.00 | 0.00 | 0.00 | 66 | 1008.6 |
| 20260506043518 | 44 | 289 | 2.0 | 4.0 | 0.00 | 0.00 | 0.00 | 66 | 1008.5 |